This demonstration page uses our WeatherBlox Daily Observations layout. Learn more.

Left ArrowRight Arrow

44.8408, -93.29828

Hourly Observations for September 13, 2021

Temp ( °F °C ) Dew Point ( °F °C ) Humidity (%) Winds ( mph kmh ) Pressure ( in mb ) Visibility ( mi km ) Precip ( " mm )
12:53 am 00:53 Clear 56 13.3 50 10 81 81 N 3 6 30.09 1019 10 16 0.00 0.00
1:53 am 01:53 Clear 56 13.3 52 11.1 87 87 Calm 30.09 1019 10 16 0.00 0.00
2:53 am 02:53 Clear 57 13.9 51 10.6 81 81 Calm 30.09 1019 10 16 0.00 0.00
3:53 am 03:53 Clear 56 13.3 51 10.6 84 84 Calm 30.09 1019 10 16 0.00 0.00
4:53 am 04:53 Clear 53 11.7 51 10.6 93 93 N 3 6 30.07 1018 10 16 0.00 0.00
5:53 am 05:53 Clear 54 12.2 51 10.6 90 90 Calm 30.07 1018 10 16 0.00 0.00
6:53 am 06:53 Mostly Sunny 54 12.2 51 10.6 90 90 Calm 30.06 1018 9 14 0.00 0.00
7:53 am 07:53 Mostly Sunny 57 13.9 51 10.6 81 81 E 6 9 30.05 1018 10 16 0.00 0.00
8:53 am 08:53 Mostly Sunny 61 16.1 52 11.1 72 72 SE 7 11 30.06 1018 10 16 0.00 0.00
9:53 am 09:53 Mostly Sunny 65 18.3 50 10 59 59 SE 12 19 30.04 1017 10 16 0.00 0.00
10:53 am 10:53 Partly Cloudy 68 20 51 10.6 55 55 SE 16 26 30.02 1017 10 16 0.00 0.00
11:53 am 11:53 Mostly Cloudy 70 21.1 50 10 49 49 ESE 10 17 30.00 1016 10 16 0.00 0.00
12:53 pm 12:53 Mostly Cloudy 74 23.3 52 11.1 46 46 ESE 13 20 29.96 1015 10 16 0.00 0.00
1:53 pm 13:53 Mostly Cloudy 73 22.8 50 10 44 44 E 9 15 29.93 1014 10 16 0.00 0.00
2:53 pm 14:53 Cloudy 76 24.4 48 8.9 37 37 E 16 26 29.91 1013 10 16 0.00 0.00
3:53 pm 15:53 Mostly Cloudy 76 24.4 52 11.1 43 43 ESE 16 26 29.87 1012 10 16 0.00 0.00
4:53 pm 16:53 Cloudy 74 23.3 53 11.7 48 48 ESE 13 20 29.84 1011 10 16 0.00 0.00
5:53 pm 17:53 Cloudy 73 22.8 55 12.8 53 53 SE 14 22 29.82 1010 10 16 0.00 0.00
6:39 pm 18:39 Cloudy 72 22.2 57 13.9 59 59 S 6 9 29.81 1010 10 16 0.00 0.00
6:53 pm 18:53 Cloudy 72 22.2 59 15 64 64 SE 9 15 29.83 1010 10 16 0.00 0.00
7:53 pm 19:53 Cloudy 71 21.7 62 16.7 73 73 ESE 9 15 29.80 1009 10 16 0.00 0.00
8:43 pm 20:43 Cloudy with Light Rain 70 21.1 63 17.2 79 79 SE 10 17 29.77 1008 10 16 0.00 0.00
8:53 pm 20:53 Cloudy with Light Rain 69 20.6 64 17.8 84 84 ESE 9 15 29.78 1009 10 16 0.00 0.00
9:02 pm 21:02 Cloudy with Light Rain 69 20.6 65 18.3 87 87 E 7 11 29.76 1008 10 16 0.00 0.00
9:16 pm 21:16 Cloudy with Nearby Thunderstorms 68 20 65 18.3 90 90 SE 10 17 29.77 1008 6 10 0.00 0.00
9:26 pm 21:26 Cloudy with Thunderstorms 68 20 65 18.3 90 90 ESE 14 22 29.74 1007 3 5 0.03 0.76
9:41 pm 21:41 Cloudy with Nearby Thunderstorms 67 19.4 66 18.9 97 97 SE 15 24 29.72 1006 7 11 0.04 1.02
9:48 pm 21:48 Cloudy with Light Rain 66 19 66 19 100 100 ESE 15 24 29.71 1006 7 11 0.04 1.02
9:53 pm 21:53 Cloudy with Light Rain 67 19.4 66 18.9 97 97 ESE 14 22 29.72 1006 6 10 0.04 1.02
10:13 pm 22:13 Mostly Cloudy with Light Rain 67 19.4 65 18.3 93 93 E 15 24 29.66 1004 9 14 0.00 0.00
10:33 pm 22:33 Mostly Cloudy 67 19.4 65 18.3 93 93 SSE 12 19 29.67 1005 10 16 0.00 0.00
10:39 pm 22:39 Mostly Cloudy 67 19.4 65 18.3 93 93 SSE 12 19 29.68 1005 10 16 0.00 0.00
10:53 pm 22:53 Cloudy 67 19.4 65 18.3 93 93 SSE 7 11 29.70 1006 10 16 0.00 0.00
11:13 pm 23:13 Cloudy 67 19.4 65 18.3 93 93 SE 10 17 29.68 1005 9 14 0.00 0.00
11:53 pm 23:53 Cloudy with Light Rain 67 19.4 65 18.3 93 93 S 13 20 29.66 1004 6 10 0.10 2.54

Powered by AerisWeather